COSMOS 1275 DEB, 12730

Orbit data source: Space-Track

COSMOS 1275 DEB, 12730 is space debris in LEO originally from a launch on Thu, 04 Jun 1981 UTC launched from the Plesetsk Missile And Space Complex (PKMTR). Debris objects in space refer to the collection of defunct objects orbiting the Earth. Examples of debris include non-operational satellites, rocket bodies, and fragments generated from explosions, collisions, or faulty payload assembly.

Loading next visibility...
Identifier
12730, 1981-053BX
Orbit
LEO
Country
Flag of CISCIS
Related business
Manufacturer
Unknown
Mission
Spacecraft
Bus & Motor
Unknown
Mass
Unknown
Launch date (UTC)
1981-06-04 (45 years ago)
Launch vehicle
Unknown
Launch site
Plesetsk Missile And Space Complex (PKMTR)
Object type
Payload
Rocket body
Debris
Shape & HBR
Unknown shape, 0.3 m
Radar Cross Section
Medium (>0.1 m² and <1 m²)

Expand to show TLE details & history
Last TLE update: 7 hours ago

TLE from 7 hours ago
0 COSMOS 1275 DEB
1 12730U 81053BX  26035.69267756  .00005173  00000-0  17896-2 0  9993
2 12730  82.9377 121.3600 0018269 140.8428 348.9459 14.35497771278093
Epoch: 2026-02-04T16:37Z
TLE epoch observation values (Epoch: 2026-02-04T16:37:27.341Z)
Latitude
49.83142°
Longitude
-91.25371°
Altitude
768.531 km
Speed
7.481 km/s
True Right ascension
19h 31m 51s
True Declination
49° 39' 43"
Sunlit
Object was in daylight at epoch
Visualization orbit readout
Latitude
Unknown
Longitude
Unknown
Altitude
Unknown
Speed
Unknown
Apparent Right ascension
Unknown
Apparent Declination
Unknown
Sunlit
N/A
Visualization observer readout
Local Sidereal Time
01:42:24
Azimuth
Unknown
Elevation
Unknown
Doppler factor
Unknown
Orbital elements
Apogee altitude
783.538 km
Perigee altitude
757.419 km
Semi-major axis
7,148.615 km
Eccentricity
0.00183
Inclination
82.9377°
RAAN
121.36°
Arg. of periapsis
140.8428°
True anomaly
348.90567°
Mean anomaly
348.9459°
Eccentric anomaly
348.92579°
Mean motion
3.59096 °/min
Orbital period
100.25 mins
BSTAR
0.0017896
Loading maneuver chart data...
Computing Atmospheric mass density...

Documentation

Showing up to 5 results
|